QPF
0.04 0.05 0.07 0.14 0.17 0.11 0.06 0.02 0.00 0.00 0.00 0.00 0.00 0.00 0.00 0.00 0.00 0.00 0.00 0.00 0.00 0.00 0.00 0.00 0.00 0.00 0.00 0.00 0.00 0.00 0.00 0.00
0.08 0.13 0.14 0.14 0.16 0.18 0.12 0.05 0.00 0.00 0.00 0.00 0.00 0.00 0.00 0.00 0.00 0.00 0.00 0.00 0.00 0.00 0.00 0.00 0.00 0.00 0.00 0.00 0.00 0.00 0.00 0.00
0.05 0.07 0.07 0.09 0.10 0.19 0.28 0.13 0.02 0.00 0.00 0.00 0.00 0.00 0.00 0.00 0.00 0.00 0.00 0.00 0.00 0.00 0.00 0.00 0.00 0.00 0.00 0.00 0.00 0.00 0.00 0.00
0.00 0.01 0.01 0.01 0.04 0.12 0.30 0.29 0.07 0.00 0.00 0.00 0.00 0.00 0.00 0.00 0.00 0.00 0.00 0.00 0.00 0.00 0.00 0.00 0.00 0.00 0.00 0.00 0.00 0.00 0.00 0.00
0.00 0.00 0.00 0.00 0.11 0.05 0.16 0.44 0.22 0.02 0.00 0.00 0.00 0.00 0.00 0.00 0.00 0.00 0.00 0.00 0.00 0.00 0.00 0.00 0.00 0.00 0.00 0.00 0.00 0.00 0.00 0.00
0.00 0.00 0.00 0.00 0.16 0.30 0.45 0.54 0.53 0.08 0.00 0.00 0.00 0.00 0.00 0.00 0.00 0.00 0.00 0.00 0.00 0.00 0.00 0.00 0.00 0.00 0.00 0.00 0.00 0.00 0.00 0.00
0.00 0.00 0.00 0.00 0.01 0.28 0.75 1.23 0.74 0.27 0.02 0.00 0.00 0.00 0.00 0.00 0.00 0.00 0.00 0.00 0.00 0.00 0.00 0.00 0.00 0.00 0.00 0.00 0.00 0.00 0.00 0.00
0.00 0.00 0.00 0.00 0.02 0.07 0.33 1.24 1.18 0.50 0.06 0.00 0.00 0.00 0.00 0.00 0.00 0.00 0.00 0.00 0.00 0.00 0.00 0.00 0.00 0.00 0.00 0.00 0.00 0.00 0.00 0.00
0.00 0.00 0.00 0.00 0.03 0.28 0.15 0.48 0.85 0.72 0.19 0.01 0.00 0.00 0.00 0.00 0.00 0.00 0.00 0.00 0.00 0.00 0.00 0.00 0.00 0.00 0.00 0.00 0.00 0.00 0.00 0.00
0.00 0.00 0.00 0.00 0.00 0.09 0.35 0.30 0.61 0.55 0.35 0.03 0.00 0.00 0.00 0.00 0.00 0.00 0.00 0.00 0.00 0.00 0.00 0.00 0.00 0.00 0.00 0.00 0.00 0.00 0.00 0.00
0.00 0.00 0.00 0.00 0.00 0.03 0.25 0.33 0.32 0.58 0.36 0.04 0.00 0.00 0.00 0.00 0.00 0.00 0.00 0.00 0.00 0.00 0.00 0.00 0.00 0.00 0.00 0.00 0.00 0.00 0.00 0.00
0.00 0.00 0.00 0.00 0.00 0.00 0.14 0.65 0.52 0.39 0.33 0.05 0.00 0.00 0.00 0.00 0.00 0.00 0.00 0.00 0.00 0.00 0.00 0.00 0.00 0.00 0.00 0.00 0.00 0.00 0.00 0.00
0.00 0.00 0.00 0.00 0.00 0.00 0.02 0.43 1.11 0.68 0.28 0.07 0.01 0.01 0.00 0.00 0.00 0.00 0.00 0.00 0.00 0.00 0.00 0.00 0.00 0.00 0.00 0.00 0.00 0.00 0.00 0.00
0.00 0.00 0.00 0.00 0.00 0.00 0.00 0.04 0.47 0.95 0.63 0.17 0.05 0.03 0.02 0.00 0.00 0.00 0.00 0.00 0.00 0.00 0.00 0.00 0.00 0.00 0.00 0.00 0.00 0.00 0.00 0.00
0.00 0.00 0.00 0.00 0.00 0.00 0.00 0.00 0.06 0.45 0.63 0.27 0.07 0.03 0.01 0.00 0.00 0.00 0.00 0.00 0.00 0.00 0.00 0.00 0.00 0.00 0.00 0.00 0.00 0.00 0.00 0.00
0.02 0.03 0.05 0.07 0.02 0.00 0.00 0.02 0.05 0.11 0.34 0.18 0.07 0.05 0.03 0.01 0.00 0.00 0.00 0.00 0.00 0.00 0.00 0.00 0.00 0.00 0.00 0.00 0.00 0.00 0.00 0.00
0.03 0.04 0.08 0.11 0.09 0.07 0.01 0.14 0.08 0.08 0.14 0.13 0.07 0.04 0.03 0.02 0.00 0.00 0.00 0.00 0.00 0.00 0.00 0.00 0.00 0.00 0.00 0.00 0.00 0.00 0.00 0.00
0.02 0.02 0.03 0.06 0.13 0.13 0.07 0.14 0.24 0.13 0.11 0.09 0.09 0.04 0.02 0.01 0.01 0.00 0.00 0.00 0.00 0.00 0.00 0.00 0.00 0.00 0.00 0.00 0.00 0.00 0.00 0.00
0.02 0.02 0.01 0.01 0.04 0.14 0.23 0.11 0.30 0.41 0.26 0.07 0.06 0.05 0.03 0.02 0.01 0.00 0.00 0.00 0.00 0.00 0.00 0.00 0.00 0.00 0.00 0.00 0.00 0.00 0.00 0.00
MSLP
1010.45 1011.05 1011.52 1011.82 1012.56 1013.65 1014.78 1015.56 1016.00 1016.17 1016.46 1017.00 1017.48 1017.96 1018.28 1018.67 1019.25 1019.59 1020.17 1020.55 1021.16 1021.87 1022.51 1023.28 1023.84 1024.66 1025.40 1026.07 1026.90 1027.85 1028.37 1028.94
1010.05 1010.28 1010.64 1011.62 1012.24 1012.02 1014.07 1015.01 1015.54 1016.02 1015.95 1016.54 1016.93 1017.43 1017.95 1018.26 1018.76 1019.25 1019.78 1020.33 1020.83 1021.53 1022.27 1023.15 1023.77 1024.36 1025.21 1025.96 1027.22 1027.90 1028.99 1029.28
1010.27 1010.68 1010.85 1011.27 1011.80 1012.28 1012.25 1014.52 1014.97 1015.55 1015.70 1015.97 1016.67 1016.97 1017.71 1017.59 1018.17 1018.90 1019.39 1019.92 1020.57 1021.05 1021.85 1022.75 1023.66 1024.52 1025.51 1026.24 1026.83 1027.89 1028.74 1029.06
1009.45 1010.16 1010.10 1010.43 1011.11 1011.40 1011.43 1012.70 1014.67 1014.73 1015.34 1015.82 1016.57 1017.23 1017.81 1018.06 1018.22 1018.74 1019.25 1019.60 1020.25 1020.75 1021.64 1022.48 1023.47 1024.27 1025.25 1025.98 1026.53 1026.94 1028.22 1029.07
1008.35 1008.62 1009.14 1009.39 1009.83 1010.06 1010.62 1011.90 1013.63 1014.23 1014.67 1015.29 1015.74 1016.42 1016.83 1017.09 1017.73 1018.43 1019.26 1019.48 1019.96 1020.57 1021.31 1022.23 1023.14 1024.13 1025.06 1025.65 1025.99 1026.42 1027.23 1028.15
1007.49 1008.09 1008.25 1008.39 1008.99 1009.49 1011.14 1010.59 1013.01 1013.35 1013.84 1014.64 1015.06 1015.84 1016.33 1017.16 1017.83 1018.44 1019.19 1019.61 1019.81 1020.37 1021.10 1022.00 1023.04 1023.87 1024.60 1025.24 1025.92 1026.39 1027.02 1027.55
1006.54 1006.94 1007.21 1007.90 1008.89 1009.44 1010.15 1010.50 1010.44 1012.66 1013.38 1013.75 1014.34 1015.12 1016.19 1017.19 1017.93 1018.50 1019.02 1019.44 1019.88 1020.29 1020.90 1021.71 1022.68 1023.44 1024.23 1024.95 1025.41 1025.83 1026.36 1026.95
1005.89 1006.13 1007.07 1007.91 1008.81 1009.71 1009.83 1010.80 1011.20 1012.09 1012.91 1013.06 1013.78 1014.44 1015.27 1016.38 1017.11 1017.85 1018.81 1019.25 1019.84 1020.19 1020.56 1021.51 1022.27 1023.03 1023.82 1024.62 1025.22 1025.69 1026.03 1026.58
1005.24 1005.14 1005.80 1006.60 1007.67 1008.58 1009.42 1009.50 1010.45 1010.98 1012.59 1012.76 1013.31 1014.11 1014.85 1015.85 1016.42 1017.11 1017.98 1018.47 1019.11 1019.65 1020.32 1021.01 1021.85 1022.72 1023.57 1024.30 1024.82 1025.27 1025.68 1026.23
1004.31 1004.35 1005.01 1005.47 1006.69 1007.59 1008.20 1008.70 1009.48 1010.41 1011.78 1012.22 1012.90 1013.74 1014.64 1015.42 1016.06 1016.72 1017.53 1018.10 1018.87 1019.51 1020.19 1020.89 1021.59 1022.34 1023.14 1023.86 1024.42 1025.04 1025.56 1025.97
1003.01 1003.39 1004.18 1004.78 1005.36 1006.44 1007.36 1007.84 1008.44 1010.35 1011.53 1011.59 1012.34 1013.11 1013.82 1015.00 1015.70 1016.55 1017.16 1017.78 1018.60 1019.35 1020.07 1020.66 1021.40 1022.04 1022.70 1023.42 1024.08 1024.58 1025.30 1025.80
1002.67 1002.75 1003.35 1004.01 1004.70 1005.92 1006.95 1007.58 1007.93 1008.94 1010.37 1011.09 1011.85 1012.72 1013.42 1014.60 1015.35 1016.06 1016.67 1017.51 1018.28 1019.02 1019.71 1020.50 1021.18 1021.87 1022.38 1023.14 1023.84 1024.38 1025.08 1025.55
1002.04 1002.32 1003.00 1004.07 1004.88 1005.90 1006.70 1007.63 1008.37 1009.21 1009.26 1010.66 1011.37 1012.24 1013.35 1014.22 1015.03 1015.61 1016.41 1017.29 1017.94 1018.51 1019.20 1020.16 1020.79 1021.55 1022.15 1022.91 1023.60 1024.05 1024.80 1025.48
1002.18 1002.51 1003.31 1003.27 1004.09 1005.19 1006.01 1007.01 1008.02 1008.33 1009.78 1010.35 1011.31 1011.94 1012.76 1013.69 1014.54 1015.30 1016.20 1017.14 1017.81 1018.36 1018.94 1019.73 1020.47 1021.10 1021.88 1022.60 1023.10 1023.57 1024.43 1024.93
1003.06 1003.29 1003.19 1003.51 1003.76 1004.54 1005.39 1006.73 1007.13 1007.91 1008.80 1009.59 1010.88 1011.32 1012.03 1013.07 1014.01 1015.00 1015.90 1016.75 1017.56 1018.23 1018.85 1019.45 1020.12 1020.82 1021.47 1022.27 1022.81 1023.35 1024.10 1024.64
1004.10 1003.88 1003.77 1003.95 1004.51 1004.80 1005.02 1005.69 1006.45 1007.51 1007.83 1009.52 1010.49 1011.06 1011.64 1012.84 1013.86 1014.71 1015.61 1016.33 1017.03 1017.82 1018.69 1019.39 1019.98 1020.57 1021.17 1021.90 1022.46 1023.10 1023.83 1024.47
1006.27 1005.43 1004.92 1004.75 1004.87 1005.07 1005.40 1005.63 1006.39 1007.37 1007.90 1009.04 1010.15 1010.78 1011.40 1012.50 1013.53 1014.37 1015.25 1016.01 1016.72 1017.54 1018.34 1018.97 1019.75 1020.21 1020.86 1021.47 1022.10 1022.85 1023.54 1024.13
1008.22 1006.99 1006.45 1005.69 1005.43 1005.36 1004.92 1005.28 1006.09 1006.92 1007.84 1008.77 1009.57 1009.92 1010.93 1012.01 1012.91 1013.96 1014.84 1015.65 1016.31 1017.23 1018.01 1018.66 1019.20 1019.76 1020.52 1021.25 1021.68 1022.52 1023.22 1023.80
1009.39 1008.34 1006.94 1006.34 1005.78 1005.08 1005.00 1005.39 1005.87 1006.40 1007.41 1008.22 1008.63 1009.74 1010.77 1011.47 1012.39 1013.52 1014.32 1015.00 1015.81 1016.72 1017.57 1018.25 1018.83 1019.51 1020.22 1020.99 1021.59 1022.20 1022.83 1023.43
Thickness
5666 5669 5674 5679 5677 5674 5670 5670 5673 5679 5683 5683 5683 5683 5684 5683 5678 5677 5673 5670 5666 5660 5654 5647 5643 5638 5632 5624 5619 5613 5606 5600
5660 5668 5672 5669 5669 5680 5669 5666 5668 5672 5679 5682 5684 5684 5683 5684 5679 5676 5673 5667 5664 5660 5653 5644 5640 5636 5630 5623 5614 5609 5598 5595
5646 5654 5660 5661 5666 5669 5674 5663 5662 5668 5675 5681 5681 5682 5679 5684 5681 5674 5671 5668 5662 5660 5654 5645 5637 5631 5625 5619 5614 5605 5598 5595
5642 5647 5658 5660 5662 5665 5671 5669 5657 5666 5670 5672 5672 5671 5672 5675 5677 5672 5669 5666 5660 5657 5651 5644 5636 5630 5623 5618 5614 5611 5601 5592
5641 5648 5654 5662 5665 5672 5671 5661 5649 5658 5666 5668 5672 5675 5676 5679 5674 5671 5664 5662 5657 5653 5649 5641 5635 5628 5622 5617 5614 5612 5607 5599
5634 5639 5650 5662 5662 5664 5654 5660 5647 5653 5663 5665 5670 5672 5673 5667 5668 5667 5660 5655 5653 5651 5647 5640 5633 5626 5622 5617 5613 5610 5605 5600
5631 5638 5650 5654 5650 5655 5652 5649 5649 5652 5654 5664 5668 5671 5665 5661 5661 5661 5655 5651 5648 5647 5645 5638 5631 5625 5621 5617 5614 5611 5608 5601
5622 5633 5638 5642 5638 5638 5642 5642 5642 5649 5651 5660 5663 5668 5666 5661 5660 5659 5652 5649 5645 5644 5643 5636 5629 5625 5620 5617 5613 5610 5608 5602
5614 5632 5639 5644 5642 5639 5636 5641 5643 5643 5643 5653 5659 5663 5663 5659 5660 5658 5654 5651 5646 5643 5640 5636 5630 5624 5619 5616 5613 5609 5608 5603
5613 5633 5636 5645 5642 5639 5639 5641 5640 5643 5639 5649 5654 5657 5655 5656 5656 5653 5648 5646 5643 5640 5636 5633 5628 5624 5619 5616 5612 5608 5606 5602
5618 5635 5637 5643 5646 5642 5639 5642 5644 5636 5636 5647 5651 5655 5653 5650 5650 5647 5645 5643 5641 5637 5633 5629 5625 5622 5619 5615 5612 5610 5604 5601
5619 5633 5638 5642 5644 5639 5635 5638 5643 5643 5641 5644 5646 5648 5650 5646 5646 5644 5643 5640 5636 5634 5631 5627 5623 5619 5618 5613 5610 5607 5603 5599
5625 5632 5638 5633 5631 5630 5630 5627 5632 5633 5640 5638 5642 5643 5640 5640 5641 5640 5637 5635 5634 5632 5630 5625 5622 5618 5615 5612 5608 5606 5601 5595
5620 5626 5626 5634 5635 5632 5630 5627 5625 5634 5630 5631 5632 5637 5638 5639 5637 5635 5632 5630 5629 5628 5627 5624 5620 5618 5613 5610 5608 5605 5599 5596
5609 5615 5624 5627 5632 5633 5630 5624 5628 5629 5625 5627 5631 5636 5638 5637 5634 5630 5628 5626 5625 5624 5622 5621 5618 5615 5612 5608 5605 5603 5597 5594
5602 5609 5617 5618 5620 5626 5632 5632 5629 5629 5630 5625 5628 5632 5635 5630 5628 5625 5623 5623 5623 5620 5617 5616 5615 5613 5610 5607 5604 5600 5594 5590
5577 5593 5606 5610 5615 5619 5623 5626 5626 5625 5628 5626 5625 5628 5629 5628 5624 5622 5619 5620 5619 5617 5615 5614 5611 5612 5609 5605 5602 5596 5592 5588
5557 5576 5589 5601 5608 5613 5623 5626 5625 5625 5622 5622 5622 5631 5628 5626 5623 5618 5617 5616 5615 5613 5610 5610 5610 5609 5605 5602 5600 5595 5589 5584
5547 5561 5581 5593 5603 5616 5621 5624 5624 5624 5621 5622 5626 5623 5622 5623 5621 5617 5615 5614 5613 5610 5607 5606 5606 5603 5600 5597 5594 5590 5586 5581